Location: Unspecified
(0.0000°N, 0.0000°E)
Time: 16:47:41
(UTC+02:00)

Sapphire - Visible Passes

Search period start: 22 June 2018 00:00
Search period end: 02 July 2018 00:00
Orbit: 785 x 796 km, 67.1° (Epoch: 21 June)

Date Brightness Start Highest point End Pass type
(mag) Time Alt. Az. Time Alt. Az. Time Alt. Az.
23 Jun ? 23:16:24 12° NW 23:16:24 12° NW 23:17:04 10° NNW visible
24 Jun ? 20:55:55 10° SSE 20:59:41 19° ESE 21:03:25 10° ENE visible
24 Jun ? 22:38:16 10° SW 22:42:48 28° WNW 22:47:21 10° NNW visible
25 Jun ? 20:26:59 10° SE 20:28:59 12° ESE 20:30:59 10° E visible
25 Jun ? 22:07:03 10° SW 22:12:08 43° WNW 22:17:14 10° N visible
26 Jun ? 21:36:08 10° SSW 21:41:29 67° WNW 21:46:50 10° NNE visible
27 Jun ? 21:05:26 10° SSW 21:10:50 79° ESE 21:16:13 10° NNE visible
28 Jun ? 20:34:57 10° S 20:40:10 50° ESE 20:45:23 10° NE visible
29 Jun ? 21:49:21 10° WSW 21:52:39 16° WNW 21:55:56 10° NNW visible
30 Jun ? 21:17:36 10° SW 21:21:58 25° WNW 21:26:21 10° NNW visible
01 Jul ? 20:46:19 10° SW 20:51:18 39° WNW 20:56:18 10° N visible
